Back to catalog

STARLINK-4579

AliveCommunicationsSSO
NORAD 53677·PAYLOAD·🇺🇸 United States

Launched Aug 31, 2022 from Vandenberg Space Force Base

Loading…

Next Passes (next 24 hours)

TLE

FreshSource: CelesTrak SupGP

Epoch: Sep 14, 2026, 21:39 UTC

1 53677C 22105AF  26257.90256944 -.00011611  00000+0 -36061-3 0  2576
2 53677  97.2841 134.6896 0001609  88.5608 171.9974 15.33428589    16

Track STARLINK-4579 in real time with AllMySat

Download on the App Store